Total_Precipitation_Accumulation
0.29 0.30 0.32 0.35 0.39 0.43 0.46 0.49 0.55 0.60 0.63 0.60 0.55 0.48 0.41 0.36 0.34 0.31 0.30 0.30 0.31 0.32 0.34 0.36 0.39 0.42 0.43 0.45 0.51 0.54 0.54 0.52 0.55 0.56 0.50 0.34 0.29 0.26 0.23 0.22 0.25 0.34 0.43 0.48 0.34 0.22 0.13 0.04 0.03 0.03 0.04 0.05 0.08 0.13 0.17 0.14 0.10 0.07 0.05 0.02 0.01 0.01 0.01 0.01 0.01 0.01 0.01 0.00 0.00
0.28 0.26 0.26 0.28 0.30 0.33 0.36 0.39 0.41 0.49 0.56 0.58 0.56 0.52 0.47 0.42 0.37 0.34 0.32 0.32 0.33 0.32 0.33 0.39 0.43 0.45 0.46 0.42 0.46 0.50 0.54 0.55 0.59 0.61 0.57 0.42 0.34 0.29 0.25 0.22 0.23 0.29 0.38 0.47 0.41 0.29 0.17 0.12 0.06 0.04 0.03 0.04 0.07 0.11 0.15 0.16 0.13 0.09 0.05 0.02 0.01 0.01 0.01 0.01 0.00 0.01 0.01 0.01 0.00
0.27 0.27 0.26 0.25 0.23 0.24 0.26 0.30 0.30 0.36 0.43 0.47 0.48 0.49 0.49 0.45 0.40 0.37 0.37 0.37 0.37 0.36 0.37 0.44 0.45 0.43 0.40 0.37 0.40 0.45 0.49 0.53 0.59 0.65 0.66 0.55 0.44 0.36 0.30 0.27 0.26 0.26 0.31 0.43 0.44 0.34 0.21 0.15 0.09 0.05 0.04 0.03 0.05 0.08 0.12 0.17 0.14 0.09 0.04 0.01 0.01 0.01 0.01 0.00 0.01 0.01 0.01 0.01 0.00
0.28 0.29 0.29 0.26 0.23 0.20 0.19 0.19 0.19 0.23 0.28 0.33 0.36 0.39 0.41 0.41 0.40 0.39 0.39 0.41 0.43 0.44 0.43 0.42 0.40 0.35 0.32 0.34 0.36 0.42 0.48 0.51 0.57 0.66 0.73 0.75 0.59 0.45 0.35 0.30 0.29 0.29 0.30 0.34 0.41 0.37 0.29 0.23 0.18 0.11 0.05 0.04 0.04 0.06 0.08 0.12 0.11 0.07 0.03 0.01 0.01 0.01 0.01 0.00 0.01 0.01 0.01 0.00 0.00
0.25 0.27 0.27 0.26 0.23 0.19 0.16 0.14 0.13 0.15 0.19 0.23 0.29 0.32 0.34 0.35 0.35 0.36 0.38 0.45 0.49 0.50 0.47 0.41 0.37 0.32 0.28 0.28 0.30 0.36 0.44 0.50 0.55 0.62 0.71 0.77 0.69 0.55 0.43 0.36 0.36 0.33 0.29 0.26 0.33 0.35 0.33 0.27 0.22 0.15 0.08 0.05 0.04 0.04 0.06 0.08 0.07 0.04 0.01 0.01 0.00 0.00 0.01 0.01 0.01 0.00 0.00 0.00 0.00
0.23 0.22 0.24 0.27 0.25 0.22 0.19 0.16 0.14 0.12 0.13 0.17 0.22 0.25 0.26 0.27 0.28 0.32 0.37 0.43 0.45 0.47 0.48 0.48 0.42 0.38 0.36 0.33 0.30 0.31 0.35 0.39 0.46 0.52 0.59 0.69 0.70 0.62 0.51 0.43 0.41 0.39 0.35 0.28 0.27 0.25 0.24 0.27 0.25 0.21 0.15 0.07 0.05 0.04 0.04 0.05 0.06 0.03 0.00 0.00 0.00 0.01 0.01 0.01 0.00 0.00 0.00 0.00 0.00
0.23 0.21 0.21 0.26 0.25 0.24 0.21 0.18 0.15 0.13 0.12 0.12 0.15 0.17 0.18 0.19 0.21 0.24 0.28 0.32 0.37 0.44 0.50 0.54 0.52 0.46 0.39 0.33 0.31 0.29 0.29 0.31 0.35 0.40 0.45 0.52 0.59 0.57 0.51 0.44 0.43 0.43 0.41 0.36 0.26 0.22 0.21 0.23 0.24 0.24 0.20 0.11 0.08 0.06 0.04 0.05 0.04 0.02 0.01 0.00 0.01 0.01 0.00 0.01 0.00 0.00 0.00 0.00 0.00
0.28 0.23 0.20 0.21 0.22 0.22 0.21 0.19 0.18 0.16 0.14 0.14 0.13 0.12 0.11 0.12 0.16 0.20 0.23 0.27 0.35 0.37 0.39 0.44 0.45 0.42 0.37 0.32 0.29 0.26 0.25 0.26 0.29 0.33 0.37 0.41 0.45 0.46 0.43 0.40 0.41 0.42 0.42 0.38 0.28 0.23 0.22 0.20 0.21 0.21 0.20 0.17 0.10 0.05 0.04 0.04 0.03 0.02 0.01 0.01 0.01 0.01 0.01 0.00 0.00 0.00 0.00 0.00 0.00
0.34 0.31 0.25 0.18 0.19 0.20 0.20 0.20 0.19 0.18 0.18 0.17 0.16 0.13 0.11 0.09 0.13 0.17 0.22 0.27 0.25 0.27 0.31 0.36 0.37 0.37 0.35 0.30 0.26 0.23 0.22 0.22 0.25 0.27 0.29 0.32 0.36 0.37 0.35 0.35 0.36 0.37 0.36 0.36 0.34 0.30 0.26 0.23 0.21 0.20 0.19 0.18 0.10 0.06 0.03 0.02 0.02 0.01 0.00 0.01 0.01 0.01 0.01 0.00 0.00 0.00 0.00 0.00 0.00
0.28 0.28 0.25 0.19 0.18 0.18 0.18 0.18 0.18 0.18 0.18 0.18 0.17 0.15 0.12 0.10 0.10 0.11 0.12 0.14 0.17 0.21 0.25 0.27 0.30 0.32 0.32 0.29 0.23 0.20 0.19 0.21 0.24 0.27 0.27 0.28 0.29 0.28 0.27 0.28 0.30 0.31 0.32 0.30 0.29 0.30 0.30 0.27 0.23 0.20 0.18 0.17 0.14 0.09 0.04 0.02 0.01 0.00 0.01 0.01 0.01 0.01 0.00 0.00 0.00 0.00 0.00 0.00 0.00
0.21 0.21 0.19 0.17 0.16 0.16 0.17 0.18 0.18 0.16 0.14 0.14 0.14 0.13 0.12 0.09 0.08 0.08 0.09 0.11 0.13 0.15 0.17 0.19 0.23 0.25 0.24 0.22 0.19 0.17 0.17 0.19 0.27 0.31 0.32 0.31 0.25 0.21 0.18 0.19 0.22 0.25 0.26 0.24 0.26 0.28 0.29 0.30 0.25 0.20 0.17 0.16 0.14 0.11 0.07 0.02 0.01 0.01 0.01 0.01 0.01 0.01 0.00 0.00 0.00 0.00 0.00 0.00 0.00
0.17 0.18 0.18 0.17 0.15 0.14 0.15 0.16 0.15 0.14 0.12 0.10 0.09 0.08 0.07 0.06 0.06 0.07 0.08 0.10 0.11 0.12 0.12 0.14 0.20 0.21 0.19 0.17 0.15 0.16 0.18 0.21 0.32 0.36 0.37 0.38 0.27 0.19 0.15 0.14 0.17 0.19 0.21 0.22 0.24 0.26 0.28 0.30 0.26 0.21 0.17 0.15 0.13 0.10 0.07 0.03 0.02 0.01 0.01 0.01 0.01 0.00 0.00 0.00 0.00 0.00 0.00 0.00 0.00
0.12 0.16 0.18 0.17 0.15 0.14 0.13 0.13 0.12 0.12 0.10 0.08 0.06 0.05 0.05 0.05 0.05 0.06 0.08 0.10 0.11 0.11 0.12 0.14 0.18 0.19 0.17 0.14 0.13 0.15 0.19 0.25 0.35 0.40 0.43 0.42 0.29 0.20 0.15 0.14 0.15 0.16 0.17 0.19 0.21 0.24 0.26 0.27 0.25 0.20 0.15 0.13 0.11 0.08 0.05 0.04 0.03 0.02 0.01 0.01 0.00 0.00 0.00 0.00 0.00 0.00 0.00 0.00 0.00
0.10 0.13 0.16 0.17 0.15 0.13 0.12 0.11 0.11 0.11 0.11 0.09 0.06 0.05 0.05 0.05 0.06 0.06 0.08 0.09 0.11 0.12 0.13 0.14 0.16 0.17 0.17 0.13 0.12 0.13 0.18 0.26 0.35 0.44 0.47 0.45 0.30 0.20 0.15 0.14 0.13 0.13 0.14 0.15 0.18 0.21 0.23 0.24 0.22 0.17 0.11 0.09 0.07 0.05 0.04 0.03 0.03 0.02 0.01 0.00 0.00 0.00 0.00 0.00 0.00 0.00 0.00 0.00 0.00
0.09 0.11 0.13 0.15 0.15 0.14 0.11 0.10 0.10 0.11 0.12 0.10 0.07 0.05 0.05 0.06 0.06 0.07 0.08 0.10 0.11 0.12 0.13 0.15 0.18 0.18 0.17 0.15 0.14 0.15 0.18 0.25 0.36 0.45 0.48 0.43 0.28 0.20 0.15 0.13 0.11 0.10 0.10 0.11 0.14 0.16 0.17 0.17 0.16 0.12 0.08 0.06 0.05 0.04 0.03 0.02 0.02 0.01 0.00 0.00 0.00 0.00 0.00 0.00 0.00 0.00 0.00 0.00 0.00
0.09 0.10 0.11 0.12 0.13 0.13 0.11 0.10 0.09 0.11 0.13 0.12 0.08 0.06 0.05 0.06 0.06 0.07 0.08 0.09 0.10 0.12 0.14 0.16 0.19 0.19 0.19 0.16 0.17 0.19 0.23 0.29 0.36 0.41 0.42 0.36 0.25 0.18 0.15 0.11 0.10 0.08 0.07 0.08 0.09 0.10 0.11 0.10 0.09 0.07 0.06 0.05 0.04 0.03 0.02 0.01 0.01 0.00 0.00 0.00 0.00 0.00 0.00 0.00 0.00 0.00 0.00 0.00 0.00
0.09 0.10 0.10 0.11 0.11 0.11 0.10 0.09 0.09 0.10 0.12 0.12 0.08 0.06 0.05 0.05 0.06 0.06 0.07 0.08 0.09 0.11 0.14 0.16 0.18 0.19 0.19 0.18 0.19 0.23 0.29 0.37 0.40 0.40 0.35 0.25 0.19 0.14 0.11 0.09 0.08 0.07 0.06 0.06 0.06 0.06 0.06 0.05 0.04 0.04 0.04 0.04 0.04 0.02 0.01 0.00 0.00 0.00 0.00 0.00 0.00 0.00 0.00 0.00 0.00 0.00 0.00 0.00 0.00
0.09 0.10 0.10 0.10 0.10 0.10 0.09 0.09 0.09 0.10 0.10 0.10 0.07 0.06 0.05 0.05 0.05 0.06 0.06 0.07 0.08 0.10 0.13 0.16 0.18 0.19 0.19 0.17 0.20 0.25 0.34 0.44 0.46 0.41 0.30 0.16 0.12 0.09 0.07 0.06 0.06 0.06 0.05 0.04 0.04 0.03 0.03 0.02 0.02 0.02 0.03 0.03 0.03 0.02 0.00 0.00 0.00 0.00 0.00 0.00 0.00 0.00 0.00 0.00 0.00 0.00 0.00 0.00 0.00
0.09 0.09 0.09 0.09 0.09 0.09 0.09 0.09 0.09 0.10 0.09 0.08 0.06 0.05 0.05 0.05 0.05 0.06 0.07 0.08 0.08 0.10 0.12 0.15 0.18 0.19 0.18 0.15 0.19 0.25 0.34 0.46 0.47 0.39 0.27 0.16 0.09 0.05 0.04 0.05 0.06 0.06 0.05 0.04 0.03 0.02 0.01 0.01 0.01 0.01 0.02 0.03 0.02 0.01 0.00 0.00 0.00 0.00 0.00 0.00 0.00 0.00 0.00 0.00 0.00 0.00 0.00 0.00 0.00
0.08 0.09 0.08 0.08 0.08 0.09 0.09 0.10 0.10 0.10 0.10 0.08 0.07 0.06 0.06 0.05 0.05 0.06 0.07 0.09 0.09 0.11 0.12 0.15 0.17 0.18 0.17 0.14 0.17 0.24 0.34 0.43 0.43 0.36 0.25 0.15 0.07 0.03 0.03 0.04 0.05 0.04 0.04 0.03 0.02 0.01 0.00 0.00 0.00 0.01 0.01 0.02 0.01 0.01 0.01 0.01 0.00 0.00 0.00 0.00 0.00 0.00 0.00 0.01 0.01 0.01 0.01 0.01 0.01
0.07 0.07 0.07 0.07 0.08 0.08 0.09 0.09 0.10 0.11 0.12 0.10 0.08 0.07 0.06 0.05 0.05 0.06 0.07 0.09 0.10 0.11 0.13 0.16 0.17 0.17 0.15 0.12 0.16 0.23 0.31 0.38 0.35 0.28 0.19 0.10 0.06 0.03 0.02 0.02 0.03 0.02 0.02 0.01 0.01 0.00 0.00 0.00 0.00 0.00 0.01 0.01 0.01 0.01 0.01 0.01 0.01 0.00 0.00 0.00 0.00 0.00 0.01 0.02 0.02 0.02 0.01 0.01 0.01
0.06 0.06 0.06 0.07 0.07 0.08 0.09 0.10 0.11 0.12 0.13 0.11 0.09 0.08 0.07 0.06 0.06 0.06 0.08 0.10 0.11 0.13 0.16 0.19 0.19 0.16 0.13 0.09 0.14 0.20 0.26 0.30 0.25 0.17 0.09 0.06 0.04 0.02 0.01 0.01 0.01 0.01 0.00 0.00 0.00 0.00 0.00 0.00 0.00 0.00 0.01 0.01 0.01 0.01 0.01 0.01 0.00 0.00 0.00 0.00 0.01 0.01 0.01 0.02 0.01 0.01 0.01 0.00 0.00
0.05 0.05 0.05 0.06 0.07 0.08 0.09 0.10 0.13 0.14 0.13 0.11 0.09 0.08 0.07 0.06 0.06 0.07 0.09 0.12 0.14 0.16 0.18 0.20 0.19 0.16 0.11 0.08 0.13 0.17 0.21 0.22 0.14 0.07 0.04 0.03 0.02 0.01 0.00 0.00 0.00 0.00 0.00 0.00 0.00 0.00 0.00 0.00 0.00 0.00 0.00 0.01 0.00 0.00 0.00 0.00 0.00 0.00 0.01 0.02 0.02 0.02 0.01 0.01 0.00 0.00 0.00 0.00 0.00
0.04 0.04 0.05 0.05 0.06 0.08 0.09 0.11 0.15 0.15 0.14 0.11 0.09 0.09 0.08 0.07 0.06 0.08 0.11 0.14 0.16 0.17 0.19 0.19 0.17 0.12 0.09 0.07 0.11 0.14 0.15 0.11 0.06 0.03 0.01 0.01 0.00 0.00 0.00 0.00 0.00 0.00 0.00 0.00 0.00 0.00 0.00 0.00 0.00 0.00 0.00 0.00 0.00 0.00 0.01 0.01 0.01 0.02 0.02 0.03 0.02 0.01 0.00 0.00 0.00 0.00 0.00 0.00 0.00
0.03 0.04 0.04 0.05 0.07 0.08 0.09 0.12 0.16 0.16 0.14 0.10 0.09 0.09 0.09 0.08 0.07 0.09 0.12 0.17 0.18 0.18 0.18 0.17 0.12 0.09 0.06 0.05 0.07 0.08 0.08 0.05 0.03 0.01 0.00 0.00 0.00 0.00 0.00 0.00 0.00 0.00 0.00 0.01 0.01 0.01 0.01 0.01 0.01 0.01 0.01 0.01 0.01 0.02 0.03 0.03 0.02 0.02 0.02 0.01 0.01 0.00 0.00 0.00 0.00 0.00 0.00 0.00 0.00
0.03 0.03 0.04 0.05 0.07 0.08 0.10 0.12 0.15 0.15 0.13 0.10 0.08 0.08 0.08 0.07 0.07 0.09 0.12 0.17 0.18 0.17 0.16 0.13 0.09 0.06 0.05 0.04 0.05 0.05 0.05 0.03 0.01 0.00 0.00 0.00 0.00 0.00 0.00 0.00 0.00 0.01 0.01 0.01 0.01 0.01 0.01 0.01 0.01 0.01 0.01 0.01 0.01 0.01 0.01 0.01 0.01 0.00 0.00 0.00 0.00 0.00 0.00 0.00 0.00 0.00 0.00 0.01 0.01
0.03 0.04 0.04 0.05 0.07 0.08 0.10 0.12 0.13 0.13 0.12 0.09 0.08 0.06 0.06 0.05 0.06 0.07 0.10 0.13 0.14 0.13 0.12 0.09 0.06 0.04 0.03 0.02 0.03 0.04 0.04 0.01 0.01 0.00 0.00 0.00 0.00 0.00 0.00 0.00 0.00 0.00 0.01 0.00 0.00 0.00 0.00 0.00 0.00 0.00 0.00 0.00 0.00 0.00 0.00 0.00 0.00 0.00 0.00 0.00 0.00 0.00 0.00 0.00 0.00 0.01 0.01 0.02 0.03
0.03 0.04 0.05 0.06 0.07 0.08 0.09 0.09 0.11 0.11 0.10 0.07 0.06 0.05 0.04 0.04 0.05 0.06 0.07 0.08 0.10 0.10 0.08 0.05 0.03 0.02 0.01 0.01 0.02 0.03 0.02 0.01 0.00 0.00 0.00 0.00 0.00 0.00 0.00 0.01 0.01 0.00 0.00 0.00 0.00 0.00 0.00 0.00 0.00 0.00 0.00 0.00 0.00 0.00 0.00 0.00 0.00 0.00 0.00 0.00 0.00 0.00 0.01 0.01 0.01 0.02 0.03 0.03 0.04
0.03 0.04 0.05 0.06 0.07 0.07 0.08 0.08 0.09 0.08 0.07 0.04 0.03 0.03 0.03 0.03 0.03 0.04 0.04 0.04 0.07 0.07 0.05 0.02 0.01 0.01 0.01 0.01 0.02 0.02 0.02 0.00 0.00 0.00 0.00 0.00 0.00 0.00 0.00 0.00 0.00 0.00 0.00 0.00 0.00 0.00 0.00 0.00 0.00 0.00 0.00 0.00 0.00 0.00 0.00 0.00 0.00 0.00 0.00 0.00 0.01 0.02 0.03 0.03 0.02 0.02 0.03 0.03 0.05
0.03 0.04 0.05 0.06 0.06 0.06 0.07 0.07 0.08 0.06 0.05 0.03 0.02 0.02 0.01 0.01 0.02 0.02 0.02 0.03 0.04 0.03 0.00 0.00 0.00 0.00 0.01 0.01 0.02 0.02 0.02 0.01 0.00 0.00 0.00 0.00 0.00 0.01 0.02 0.02 0.02 0.01 0.00 0.00 0.00 0.00 0.00 0.00 0.00 0.00 0.00 0.00 0.00 0.00 0.00 0.00 0.00 0.00 0.01 0.01 0.02 0.02 0.02 0.02 0.02 0.03 0.03 0.03 0.05
0.02 0.03 0.03 0.04 0.05 0.05 0.05 0.05 0.06 0.05 0.04 0.02 0.01 0.01 0.01 0.01 0.01 0.01 0.01 0.01 0.02 0.01 0.00 0.00 0.00 0.00 0.01 0.01 0.01 0.01 0.01 0.01 0.00 0.00 0.00 0.00 0.01 0.02 0.02 0.03 0.01 0.00 0.00 0.00 0.00 0.00 0.00 0.00 0.00 0.00 0.00 0.00 0.00 0.00 0.00 0.00 0.00 0.00 0.01 0.01 0.01 0.01 0.01 0.02 0.02 0.03 0.04 0.05 0.06
0.02 0.02 0.02 0.03 0.03 0.03 0.03 0.03 0.04 0.04 0.03 0.01 0.01 0.01 0.01 0.01 0.01 0.01 0.02 0.02 0.02 0.01 0.01 0.01 0.01 0.01 0.01 0.01 0.01 0.02 0.02 0.01 0.01 0.01 0.02 0.02 0.01 0.00 0.00 0.00 0.00 0.00 0.00 0.00 0.00 0.00 0.00 0.00 0.00 0.00 0.00 0.00 0.00 0.00 0.00 0.00 0.00 0.01 0.01 0.01 0.02 0.03 0.04 0.05 0.06 0.06 0.07 0.08 0.11
0.02 0.02 0.02 0.02 0.02 0.03 0.03 0.03 0.04 0.03 0.02 0.01 0.00 0.00 0.01 0.01 0.01 0.01 0.02 0.03 0.04 0.05 0.07 0.07 0.08 0.09 0.09 0.09 0.09 0.10 0.09 0.07 0.06 0.05 0.04 0.03 0.01 0.01 0.01 0.01 0.00 0.00 0.00 0.00 0.00 0.00 0.00 0.01 0.01 0.01 0.01 0.00 0.00 0.00 0.00 0.00 0.00 0.01 0.02 0.03 0.03 0.05 0.07 0.07 0.09 0.09 0.10 0.11 0.11
0.01 0.01 0.01 0.01 0.02 0.02 0.03 0.03 0.04 0.03 0.02 0.01 0.01 0.01 0.01 0.01 0.01 0.01 0.03 0.07 0.09 0.09 0.09 0.10 0.09 0.09 0.09 0.09 0.10 0.09 0.06 0.04 0.03 0.03 0.04 0.03 0.02 0.02 0.02 0.00 0.01 0.01 0.00 0.00 0.00 0.00 0.00 0.00 0.01 0.01 0.01 0.01 0.00 0.00 0.00 0.00 0.01 0.02 0.03 0.03 0.03 0.03 0.03 0.04 0.05 0.06 0.07 0.09 0.12
0.01 0.01 0.01 0.01 0.02 0.02 0.02 0.03 0.03 0.03 0.02 0.01 0.01 0.01 0.01 0.00 0.01 0.04 0.07 0.10 0.10 0.10 0.09 0.08 0.07 0.07 0.06 0.05 0.04 0.03 0.01 0.00 0.00 0.00 0.00 0.00 0.00 0.00 0.00 0.01 0.01 0.01 0.01 0.00 0.00 0.00 0.00 0.00 0.01 0.01 0.01 0.00 0.00 0.00 0.00 0.01 0.02 0.03 0.03 0.04 0.04 0.04 0.04 0.05 0.06 0.08 0.11 0.14 0.18
0.01 0.01 0.01 0.01 0.01 0.02 0.02 0.03 0.03 0.03 0.02 0.02 0.02 0.01 0.01 0.01 0.05 0.08 0.10 0.09 0.09 0.07 0.05 0.06 0.03 0.03 0.02 0.00 0.00 0.00 0.00 0.00 0.00 0.00 0.00 0.00 0.00 0.01 0.01 0.01 0.02 0.01 0.01 0.00 0.00 0.00 0.00 0.00 0.00 0.00 0.00 0.00 0.00 0.01 0.01 0.02 0.03 0.04 0.04 0.05 0.05 0.06 0.06 0.08 0.09 0.11 0.16 0.28 0.26
0.00 0.00 0.00 0.01 0.01 0.02 0.02 0.03 0.03 0.03 0.02 0.02 0.02 0.02 0.03 0.06 0.09 0.10 0.09 0.07 0.05 0.03 0.01 0.02 0.01 0.01 0.01 0.01 0.01 0.00 0.00 0.00 0.00 0.00 0.00 0.00 0.00 0.01 0.01 0.02 0.02 0.02 0.02 0.01 0.00 0.00 0.00 0.00 0.00 0.00 0.00 0.00 0.00 0.01 0.03 0.06 0.08 0.09 0.11 0.12 0.13 0.15 0.16 0.19 0.21 0.23 0.27 0.33 0.29
0.00 0.00 0.00 0.00 0.01 0.01 0.02 0.03 0.03 0.03 0.03 0.02 0.03 0.05 0.07 0.10 0.10 0.09 0.07 0.06 0.02 0.01 0.01 0.00 0.00 0.00 0.01 0.01 0.01 0.01 0.00 0.00 0.00 0.01 0.01 0.01 0.01 0.01 0.01 0.03 0.04 0.04 0.03 0.01 0.01 0.00 0.00 0.00 0.00 0.00 0.01 0.01 0.02 0.03 0.08 0.19 0.26 0.28 0.29 0.30 0.29 0.29 0.30 0.31 0.31 0.32 0.30 0.26 0.25
0.00 0.00 0.00 0.00 0.00 0.01 0.02 0.03 0.03 0.04 0.04 0.05 0.08 0.07 0.07 0.10 0.06 0.04 0.04 0.04 0.01 0.01 0.01 0.00 0.00 0.01 0.01 0.02 0.02 0.02 0.01 0.01 0.01 0.02 0.02 0.02 0.02 0.02 0.03 0.04 0.04 0.04 0.04 0.03 0.02 0.02 0.02 0.03 0.03 0.04 0.05 0.07 0.09 0.11 0.17 0.32 0.40 0.41 0.37 0.33 0.30 0.27 0.25 0.24 0.26 0.29 0.31 0.30 0.30
0.00 0.00 0.00 0.00 0.00 0.00 0.01 0.04 0.06 0.07 0.07 0.05 0.07 0.04 0.01 0.02 0.01 0.00 0.00 0.00 0.00 0.00 0.00 0.00 0.01 0.02 0.02 0.02 0.02 0.02 0.02 0.02 0.03 0.03 0.03 0.03 0.03 0.03 0.03 0.04 0.04 0.05 0.06 0.06 0.06 0.07 0.08 0.09 0.10 0.11 0.13 0.15 0.18 0.22 0.26 0.31 0.31 0.29 0.26 0.21 0.21 0.23 0.24 0.24 0.28 0.36 0.45 0.50 0.50
0.00 0.00 0.00 0.00 0.00 0.00 0.02 0.06 0.07 0.06 0.04 0.00 0.00 0.00 0.00 0.00 0.00 0.00 0.00 0.00 0.00 0.00 0.00 0.00 0.02 0.02 0.02 0.02 0.02 0.03 0.03 0.04 0.04 0.04 0.04 0.04 0.04 0.04 0.04 0.04 0.05 0.06 0.07 0.08 0.09 0.11 0.14 0.16 0.18 0.20 0.23 0.27 0.29 0.30 0.30 0.28 0.29 0.29 0.28 0.25 0.25 0.28 0.32 0.32 0.35 0.50 0.66 0.72 0.71